This is the latest recevied weather packets stored in our database for station/object K0QED. If no packets are shown the sender has not sent any weather packets the latest 10 day(s).
| Time | Temp. | Humidity | Pressure | Rain* | Wind** | Luminosity | Snow |
|---|---|---|---|---|---|---|---|
| 1777684154 | 7.22° C | 38% | 1022.6 hPa | 0 mm | - | 18 W/m² | - |
| 1777683850 | 7.78° C | 39% | 1022.7 hPa | 0 mm | - | 19 W/m² | - |
| 1777683546 | 7.78° C | 39% | 1022.6 hPa | 0 mm | - | 21 W/m² | - |
| 1777683245 | 7.78° C | 41% | 1022.6 hPa | 0 mm | - | 24 W/m² | - |
| 1777682942 | 7.78° C | 40% | 1022.5 hPa | 0 mm | - | 26 W/m² | - |
| 1777682637 | 7.78° C | 41% | 1022.7 hPa | 0 mm | - | 27 W/m² | - |
| 1777682335 | 7.78° C | 41% | 1022.6 hPa | 0 mm | - | 31 W/m² | - |
| 1777682032 | 8.33° C | 41% | 1022.6 hPa | 0 mm | - | 35 W/m² | - |
| 1777681728 | 8.33° C | 39% | 1022.5 hPa | 0 mm | - | 43 W/m² | - |
| 1777681426 | 8.33° C | 38% | 1022.6 hPa | 0 mm | - | 49 W/m² | - |
| 1777681123 | 8.89° C | 39% | 1022.6 hPa | 0 mm | - | 122 W/m² | - |
| 1777680821 | 9.44° C | 38% | 1022.4 hPa | 0 mm | - | 137 W/m² | - |
| 1777680518 | 9.44° C | 37% | 1022.4 hPa | 0 mm | - | 150 W/m² | - |
| 1777680216 | 10° C | 38% | 1022.5 hPa | 0 mm | - | 183 W/m² | - |
| 1777679912 | 8.89° C | 39% | 1022.4 hPa | 0 mm | - | 194 W/m² | - |
| 1777679608 | 9.44° C | 40% | 1022.4 hPa | 0 mm | - | 198 W/m² | - |
| 1777679303 | 9.44° C | 38% | 1022.5 hPa | 0 mm | - | 217 W/m² | - |
| 1777679000 | 9.44° C | 39% | 1022.2 hPa | 0 mm | - | 250 W/m² | - |
| 1777678699 | 9.44° C | 40% | 1022.1 hPa | 0 mm | - | 262 W/m² | - |
| 1777678396 | 9.44° C | 40% | 1022.2 hPa | 0 mm | - | 194 W/m² | - |
| 1777678092 | 10° C | 39% | 1022.4 hPa | 0 mm | - | 321 W/m² | - |
| 1777677789 | 10° C | 43% | 1022.6 hPa | 0 mm | - | 355 W/m² | - |
| 1777677486 | 8.33° C | 40% | 1022.2 hPa | 0 mm | - | 273 W/m² | - |
| 1777677184 | 8.33° C | 41% | 1022.5 hPa | 0 mm | - | 109 W/m² | - |
| 1777676883 | 8.89° C | 42% | 1022.4 hPa | 0 mm | - | 92 W/m² | - |
* Rain latest hour (hover to see other rain measurements)
** Current wind speed in m/s (hover to see current wind gust speed)